Location: Bouillancy
(49.1149°N, 2.9308°E)
Time: 07:29:19
(UTC+00:00)

Cosmos 2082 Rocket - Pass Details

Date: 30 September 2020
Orbit: 834 x 853 km, 71.0° (Epoch: 29 October)

Event Time Altitude Azimuth Distance (km) Brightness Sun altitude
Rises 19:28:28 0° 330° (NNW) 3,395 6.1 -20.2°
Reaches altitude 10° 19:30:55 10° 329° (NNW) 2,458 5.3 -20.6°
Maximum altitude 19:36:32 74° 245° (WSW) 876 2.3 -21.4°
Enters shadow 19:39:33 28° 166° (SSE) 1,514 3.2 -21.9°
